{"data":{"norad_id":59722,"epoch":"2026-05-25T03:29:34.149696Z","epoch_age_seconds":62230,"freshness":"FRESH","line1":"1 59722U 24088Q   26145.14553414  .00006520  00000+0  23180-3 0  9991","line2":"2 59722  53.1590 145.0785 0001852  81.2875 278.8336 15.30240830115388","mean_motion":15.3024083,"eccentricity":0.0001852,"inclination_deg":53.159,"raan_deg":145.0785,"arg_perigee_deg":81.2875,"mean_anomaly_deg":278.8336,"bstar":0.0002318,"rev_number":11538,"period_min":94.102834780588,"perigee_km":473.82394288385,"apogee_km":476.36237933552,"semimajor_km":6853.2301611097,"source":"CELESTRAK","updated_at":"2026-05-25T13:38:19.048804Z"}}